Regional Weather Roundup
Issued by NWS Nashville, TN

Home | Current Version | Previous Version | Text Only | Print | Product List | Glossary On
Versions: 1 2 3 4 5 6 7 8 9 10 11 12 13 14 15 16 17 18 19 20 21 22 23 24 25 26 27 28 29 30 31 32 33 34 35 36 37 38 39 40 41 42 43 44 45 46 47 48 49 50
000
ASUS44 KOHX 242210
RWROHX
MIDDLE TENNESSEE HOURLY WEATHER ROUNDUP
NATIONAL WEATHER SERVICE NASHVILLE TN
500 PM CDT SUN JUL 24 2016

NOTE: "FAIR" INDICATES FEW OR NO CLOUDS BELOW 12,000 FEET WITH
NO SIGNIFICANT WEATHER AND/OR OBSTRUCTIONS TO VISIBILITY.

* THESE REPORTS ARE NOT UNDER NWS QUALITY CONTROL AND MAY NOT
  REPORT WEATHER SUCH AS PRECIPITATION AND FOG.


TNZ005>011-023>034-057-059-062>066-078-080-242300
...NORTHERN MIDDLE TENNESSEE...

CITY           SKY/WX    TMP DP  RH WIND       PRES   REMARKS
CLARKSVILLE    MOSUNNY   92  74  55 VRB3      29.96F HX 101
CROSSVILLE     MOSUNNY   82  73  74 CALM      30.08F
NASHVILLE      PTSUNNY   96  68  39 NE3       29.97F HX 101
SMYRNA         LGT RAIN  91  75  59 N10       29.98S HX 101
SPARTA         SUNNY     95  75  52 CALM      30.00F HX 107
$$
TNZ056-058-060-061-075>077-079-093>097-242300
...SOUTHERN MIDDLE TENNESSEE...

CITY           SKY/WX    TMP DP  RH WIND       PRES   REMARKS
COLUMBIA       PTSUNNY   93  73  52 SE5       29.96S HX 102
FAYETTEVILLE   SUNNY     88  72  58 CALM      30.00F HX  94
MCMINNVILLE    SUNNY     93  77  59 CALM      30.01F HX 107
SHELBYVILLE    SUNNY     93  75  55 SE3       29.99F HX 104
TULLAHOMA      SUNNY     91  70  49 SW8       30.02S HX  97
WINCHESTER     SUNNY     84  73  70 SW10      30.02R HX  91
$$


...KEY TO REMARKS...
VSB - VISIBILITY IN MILES
WCI - WIND CHILL INDEX
HX  - HEAT INDEX




USA.gov is the U.S. government's official web portal to all federal, state and local government web resources and services.